Wind_Speed
10 10 10 11 11 11 12 12 13 13 14 15 16 17 17 16 16 16 16 16 15 15 15 14 13 12 12 11 11 11 11 11 11 11 12 12 13 13 14 14 15 15 16 16 16 17 17 17 17
12 12 12 12 11 11 12 12 12 12 13 14 14 15 15 16 16 16 16 16 16 16 15 14 13 13 12 12 11 11 12 12 12 12 12 13 14 14 15 15 16 16 16 16 17 17 17 18 19
15 14 13 13 12 13 13 12 12 13 14 14 14 13 13 15 15 16 16 16 16 16 15 14 14 13 12 12 12 12 12 12 12 13 13 14 14 15 15 16 16 16 17 17 18 18 19 19 20
18 17 16 15 15 15 13 13 13 14 14 14 14 13 13 14 15 16 16 16 16 16 15 14 14 13 13 13 12 12 12 12 13 14 14 15 15 15 16 16 16 17 17 18 19 19 20 20 20
22 20 18 17 17 16 15 14 14 15 15 15 14 13 14 14 14 15 15 15 15 15 15 14 14 13 13 13 13 13 13 14 15 15 15 16 16 17 17 17 18 18 19 20 20 21 21 21 21
26 24 21 20 19 18 17 15 15 16 16 16 15 14 14 14 14 15 15 15 14 15 15 14 14 14 13 13 14 14 15 15 16 16 16 17 17 17 18 18 19 19 20 20 21 22 22 22 23
29 27 24 23 22 20 19 17 17 17 17 16 15 15 15 15 15 15 14 14 14 14 14 14 14 14 14 14 14 15 15 16 16 16 17 17 17 18 18 19 20 20 21 22 22 23 23 23 24
33 31 28 26 25 23 22 20 19 19 18 17 16 16 16 16 16 15 15 15 14 14 14 14 14 14 14 14 15 15 15 16 16 16 17 17 18 19 19 20 21 21 22 23 23 24 24 25 25
37 35 31 29 28 26 25 23 22 21 20 19 18 17 17 17 16 16 16 16 15 15 14 14 15 15 15 15 15 16 16 16 17 17 18 18 19 19 20 21 22 23 24 24 25 25 26 26 26
40 37 33 32 31 30 28 26 25 23 22 21 19 19 18 18 17 17 17 17 17 16 16 16 16 16 16 16 16 17 17 17 18 18 19 20 21 21 22 23 24 24 25 26 26 27 27 28 28
42 38 36 37 35 33 32 30 28 26 25 24 22 21 20 19 18 18 19 19 18 18 17 17 17 17 17 17 18 18 18 19 20 20 21 22 23 23 24 24 25 26 27 27 28 28 28 29 29
44 41 40 39 39 37 35 33 31 28 28 28 25 23 22 21 20 20 21 20 20 19 19 19 18 18 19 19 20 20 20 21 21 22 23 23 24 25 26 27 27 28 28 29 29 29 30 30 31
46 43 43 42 42 40 38 36 34 31 31 31 29 26 25 24 23 22 22 22 21 21 21 20 20 20 21 21 21 22 22 23 23 24 24 25 26 27 28 28 29 30 30 31 31 31 31 32 32
47 46 46 45 44 42 41 39 38 34 35 35 32 30 28 26 25 25 24 23 23 22 22 22 22 22 22 23 23 24 24 25 25 26 27 27 28 29 30 30 31 31 32 32 32 33 33 34 34
49 48 48 46 45 44 44 43 39 37 38 37 36 33 31 29 28 27 26 26 25 25 25 24 24 24 24 25 25 26 27 27 28 29 29 30 30 31 31 32 33 33 33 34 34 34 35 35 35
51 51 49 46 46 46 47 44 40 40 41 39 38 37 34 32 31 30 29 29 28 28 28 27 27 26 26 27 28 28 29 30 31 31 32 32 33 33 34 34 34 34 35 35 35 35 36 36 36
54 52 49 47 47 47 49 45 42 43 43 41 41 39 38 36 34 33 32 32 31 31 30 30 30 30 30 30 30 30 31 32 33 34 34 35 35 35 35 35 35 36 36 36 36 37 37 37 37
52 50 47 47 47 49 50 47 45 45 45 43 42 41 40 38 37 36 36 35 35 34 33 33 33 33 33 33 33 33 34 35 35 36 37 37 37 37 37 37 37 37 37 37 37 37 37 37 37
49 50 49 48 48 50 50 49 46 47 47 45 44 43 42 41 40 40 39 38 37 36 36 35 36 35 36 36 36 36 36 37 37 38 38 38 39 38 38 38 38 38 38 38 38 38 38 38 38
51 51 50 49 48 50 50 50 48 47 47 45 44 43 43 42 42 42 41 40 39 38 38 38 38 38 38 38 38 38 38 38 38 39 39 40 40 39 39 39 39 39 39 40 40 40 39 39 39
51 50 48 48 47 49 51 51 49 47 46 45 44 43 43 42 42 42 42 42 41 40 40 40 40 40 40 40 40 40 40 39 39 39 40 41 40 40 39 40 40 40 40 40 41 40 40 39 39
50 47 47 47 47 48 50 52 48 46 45 44 43 43 42 41 41 42 42 42 42 42 42 42 41 41 41 41 41 40 41 40 40 41 41 41 41 40 40 40 41 40 40 41 40 40 39 39 39
48 45 46 46 47 48 49 52 48 45 43 42 42 42 41 41 41 41 41 41 41 41 41 41 41 41 41 41 41 41 41 41 41 41 41 41 41 41 41 41 41 40 41 41 40 40 39 39 40
46 45 45 46 48 51 48 50 49 42 40 39 40 40 40 40 40 40 40 39 39 39 40 40 40 40 39 39 39 40 40 40 40 41 41 41 41 41 41 41 41 40 40 40 40 39 39 39 40
49 48 47 48 50 52 47 48 47 37 37 38 38 39 39 39 39 39 39 39 38 38 38 38 38 38 38 38 39 39 39 40 40 41 41 41 40 40 40 40 40 39 39 39 39 39 39 39 40
51 51 51 50 50 48 46 46 42 37 35 35 36 36 37 37 38 37 37 37 37 37 37 37 37 37 37 37 38 38 38 38 39 39 39 39 39 39 39 38 38 38 39 39 39 39 39 40 41
50 50 48 47 47 47 47 44 41 38 34 33 33 33 33 34 34 34 34 34 34 34 35 35 35 35 36 36 37 37 37 37 37 38 38 38 38 38 38 38 38 38 38 39 39 39 39 40 41
50 48 48 48 47 47 46 43 39 35 32 31 31 30 30 30 31 31 31 32 32 32 33 33 34 34 35 35 35 35 35 35 35 36 36 36 37 37 36 36 37 37 38 39 39 39 39 40 42
51 51 50 49 49 47 46 42 35 33 31 30 30 29 29 29 29 29 29 30 30 31 31 32 32 32 32 32 33 33 33 33 33 34 34 35 35 36 36 36 37 37 37 37 38 39 40 41 42
49 49 48 49 48 47 44 40 34 32 31 30 28 28 28 28 27 27 27 28 28 29 29 30 30 30 30 31 31 31 32 32 32 33 34 34 35 35 35 36 36 37 37 38 39 40 40 41 42
Wind_Direction
245 235 230 226 225 223 220 216 215 216 217 217 217 218 216 216 215 215 215 218 219 221 222 223 226 228 231 235 240 245 250 257 262 265 269 273 276 280 281 282 284 286 288 289 290 291 292 293 293
245 238 232 229 228 227 226 223 217 214 214 215 215 215 215 215 214 214 216 217 218 221 222 224 226 229 234 239 245 250 253 257 261 265 268 272 275 278 281 283 285 287 288 289 290 292 293 293 294
244 240 235 232 231 230 231 227 221 215 213 214 215 212 211 213 213 214 216 217 218 220 221 223 226 229 235 243 249 253 256 260 263 266 270 274 276 279 282 284 285 286 287 289 291 292 292 293 293
243 240 237 236 234 234 235 230 226 221 218 217 216 211 211 212 211 215 217 217 218 219 221 223 227 232 239 246 250 254 257 261 265 268 271 273 276 279 282 284 285 287 289 290 291 292 293 294 294
242 240 238 237 237 237 237 234 228 225 224 221 217 212 213 213 212 216 219 219 219 221 223 227 231 235 240 246 249 253 258 262 266 269 272 274 277 279 281 283 285 287 289 290 291 292 292 293 293
241 240 239 237 239 239 238 235 230 227 227 224 219 215 213 214 214 218 221 221 221 223 227 230 234 238 242 246 250 254 258 263 266 269 272 275 277 279 281 284 286 288 290 291 291 292 292 292 293
240 238 237 236 238 240 239 236 232 230 230 227 222 219 217 216 216 218 221 223 222 223 226 230 234 238 242 246 251 256 261 266 269 272 275 277 279 281 283 286 288 289 291 292 293 293 293 292 292
239 237 236 236 237 238 238 237 235 234 232 230 225 223 222 220 220 221 223 226 226 227 230 234 238 241 245 249 255 260 265 269 273 275 277 279 281 283 286 288 290 291 293 294 294 294 293 292 292
237 237 236 236 237 237 238 237 237 238 237 234 230 227 226 226 225 225 226 230 231 232 235 239 243 246 250 254 259 263 267 271 274 276 278 280 282 285 287 289 291 292 293 294 294 294 293 292 292
238 237 236 237 237 237 237 237 237 239 240 238 235 232 232 232 231 230 230 234 237 238 239 243 247 251 255 258 262 265 268 270 273 276 279 281 284 286 289 290 291 293 294 295 295 294 293 292 292
238 237 236 236 236 236 237 237 237 238 240 240 237 235 236 236 236 235 234 236 240 243 244 246 250 255 259 262 265 268 270 272 274 277 280 282 284 286 288 290 291 293 294 295 295 295 294 293 292
238 236 235 236 237 236 237 237 237 238 240 240 239 238 238 239 239 239 239 240 242 244 247 250 253 258 262 265 268 270 272 274 276 278 281 283 285 287 289 291 292 293 294 295 295 294 294 293 292
236 235 235 235 237 237 237 237 238 237 240 242 241 240 240 241 242 243 243 244 245 247 250 253 256 260 264 267 270 272 274 276 277 280 282 284 286 288 290 291 292 292 293 294 294 294 293 292 292
235 235 235 235 237 238 238 237 237 237 240 242 243 242 242 244 245 246 247 248 248 249 252 255 258 261 265 269 271 273 275 277 279 281 283 285 286 289 290 291 292 292 293 293 293 293 293 292 291
234 235 235 235 237 239 239 238 238 238 240 242 244 244 244 245 246 248 250 251 252 253 254 257 260 263 266 269 272 274 276 277 279 281 283 285 286 287 289 289 290 292 292 293 293 293 292 292 291
234 234 235 235 236 237 239 239 238 239 241 243 245 246 246 247 247 249 251 253 254 256 258 260 262 264 265 268 271 274 276 278 280 282 283 284 285 287 288 287 289 290 291 291 292 292 291 291 290
233 234 234 234 236 237 240 239 239 240 241 242 244 246 247 248 249 251 253 254 256 257 259 262 264 265 267 269 271 274 276 278 280 282 283 283 285 286 287 287 288 289 290 290 291 291 291 290 289
235 236 236 235 236 238 239 239 238 240 241 242 244 246 248 249 250 252 253 255 256 258 260 262 264 266 268 270 272 273 275 277 279 281 282 283 284 284 285 285 286 288 289 289 289 289 289 289 290
234 234 234 234 235 238 239 239 238 241 242 243 244 246 248 250 251 253 255 256 258 259 261 262 265 267 269 271 272 273 275 277 279 280 281 282 283 283 283 284 285 286 287 288 287 287 287 289 290
232 232 233 234 235 238 239 239 238 240 243 244 244 245 246 248 250 253 255 256 258 259 261 262 264 266 268 270 272 273 275 277 278 280 281 281 281 282 282 283 283 285 286 286 286 286 286 288 290
231 232 233 235 236 238 240 239 238 239 241 243 245 246 246 248 249 251 254 256 258 260 262 263 264 266 268 270 272 273 275 277 278 278 278 279 280 281 281 281 282 283 284 285 286 286 286 288 289
231 231 233 234 236 238 240 241 238 239 240 242 244 246 247 249 250 252 254 256 258 260 261 263 264 266 267 269 271 272 274 275 275 276 277 278 279 280 279 279 280 281 282 283 284 285 285 287 288
231 231 233 234 237 238 239 243 238 238 240 241 244 246 248 249 251 253 254 256 258 260 261 262 264 265 267 269 270 271 273 273 274 274 275 276 277 278 278 279 279 280 282 283 284 285 286 287 288
227 228 230 233 236 238 238 244 241 238 241 242 244 246 248 249 251 252 254 256 257 259 260 262 263 264 266 268 269 270 271 272 272 273 274 275 276 276 277 278 278 280 282 283 284 284 285 287 288
223 224 227 230 234 238 238 243 244 240 240 242 243 245 247 248 250 252 253 255 256 258 259 260 262 263 265 266 268 269 270 271 271 272 273 275 276 276 277 278 279 281 282 283 283 285 286 287 288
224 226 228 232 237 241 241 243 244 242 240 241 243 245 246 248 250 251 252 254 256 257 259 260 262 263 265 266 267 268 269 270 270 271 273 274 275 275 276 277 279 280 282 282 283 284 286 286 288
224 226 230 233 237 240 241 241 241 242 242 242 243 244 245 247 248 250 251 254 255 257 259 260 261 263 264 265 266 266 267 268 269 270 271 273 274 275 275 276 278 280 280 281 282 285 287 288 289
226 227 228 230 234 238 240 239 238 240 243 243 244 245 245 246 247 249 251 254 255 257 258 260 261 262 263 264 265 266 267 267 268 270 271 272 273 274 275 275 277 278 280 282 283 286 287 288 290
222 223 225 229 232 236 238 238 238 242 243 243 244 244 245 246 247 249 251 253 255 257 259 260 262 262 263 264 265 266 266 267 268 269 270 270 271 273 274 275 277 279 281 282 284 286 288 290 291
225 226 227 228 232 235 239 240 239 241 242 243 243 243 243 244 246 248 250 253 255 257 259 261 262 262 263 264 265 266 266 267 267 268 269 270 272 273 274 276 278 280 282 284 285 287 289 290 292
Height
5848 5849 5849 5850 5851 5851 5851 5852 5852 5853 5854 5855 5857 5858 5860 5863 5866 5869 5869 5869 5870 5872 5873 5875 5876 5877 5878 5879 5880 5880 5881 5881 5882 5882 5882 5882 5881 5881 5880 5880 5879 5878 5877 5876 5876 5874 5874 5872 5872
5846 5847 5848 5848 5849 5849 5849 5850 5851 5851 5852 5853 5855 5856 5858 5860 5862 5864 5865 5866 5868 5870 5871 5873 5874 5875 5876 5877 5878 5878 5879 5879 5880 5880 5880 5879 5879 5879 5878 5877 5876 5876 5875 5874 5873 5872 5871 5870 5869
5843 5844 5846 5846 5846 5847 5847 5848 5849 5849 5850 5851 5853 5854 5856 5858 5859 5861 5862 5864 5866 5867 5869 5870 5872 5873 5874 5875 5875 5876 5877 5877 5877 5877 5877 5877 5877 5876 5875 5875 5874 5873 5872 5871 5870 5869 5868 5867 5866
5840 5842 5843 5844 5844 5844 5845 5846 5847 5847 5848 5849 5851 5853 5854 5856 5857 5858 5860 5861 5863 5865 5866 5868 5869 5871 5872 5872 5873 5874 5874 5875 5875 5875 5875 5874 5874 5873 5873 5872 5871 5870 5869 5868 5867 5866 5865 5863 5862
5836 5838 5839 5840 5840 5841 5842 5843 5844 5845 5846 5848 5849 5850 5852 5854 5855 5856 5857 5859 5861 5862 5864 5866 5867 5868 5869 5870 5871 5871 5872 5872 5872 5872 5872 5872 5871 5871 5870 5869 5868 5867 5866 5865 5864 5862 5861 5860 5859
5832 5833 5836 5836 5837 5838 5840 5841 5842 5843 5844 5845 5847 5848 5850 5852 5853 5854 5855 5856 5858 5860 5861 5863 5864 5865 5867 5867 5868 5869 5869 5869 5869 5869 5869 5868 5868 5867 5867 5866 5865 5864 5863 5862 5860 5859 5858 5856 5855
5827 5828 5830 5832 5833 5834 5836 5837 5839 5840 5841 5843 5844 5846 5847 5849 5851 5852 5853 5854 5856 5857 5859 5860 5861 5863 5864 5865 5865 5866 5866 5866 5866 5866 5866 5865 5865 5864 5863 5863 5862 5861 5859 5858 5856 5855 5853 5852 5850
5819 5823 5825 5827 5828 5830 5832 5833 5835 5836 5838 5840 5841 5843 5845 5847 5848 5850 5851 5852 5853 5855 5856 5857 5859 5860 5861 5861 5862 5863 5863 5863 5863 5863 5862 5862 5861 5861 5860 5859 5858 5857 5855 5854 5852 5850 5849 5847 5846
5812 5817 5819 5822 5823 5826 5827 5830 5831 5833 5834 5836 5838 5840 5842 5843 5845 5847 5848 5849 5851 5852 5853 5854 5856 5857 5857 5858 5859 5859 5859 5859 5859 5859 5859 5858 5858 5857 5856 5855 5854 5853 5851 5849 5848 5846 5844 5842 5841
5805 5810 5814 5815 5817 5820 5822 5825 5827 5829 5831 5832 5835 5837 5838 5840 5842 5844 5846 5846 5848 5849 5850 5851 5852 5853 5854 5855 5855 5855 5856 5856 5855 5855 5855 5854 5853 5853 5852 5851 5849 5848 5846 5845 5843 5841 5839 5837 5835
5797 5803 5806 5807 5810 5813 5816 5819 5822 5824 5826 5828 5830 5832 5834 5836 5838 5841 5842 5843 5845 5846 5847 5848 5849 5850 5850 5851 5851 5851 5852 5852 5851 5851 5851 5850 5849 5848 5847 5846 5845 5843 5841 5840 5838 5836 5834 5832 5830
5789 5794 5797 5800 5802 5806 5809 5813 5816 5819 5821 5822 5825 5827 5829 5832 5834 5836 5838 5840 5841 5842 5843 5844 5845 5846 5846 5847 5847 5847 5847 5847 5847 5847 5846 5845 5844 5843 5842 5841 5839 5838 5836 5834 5832 5830 5828 5826 5823
5779 5785 5788 5791 5794 5798 5802 5806 5809 5813 5814 5816 5819 5822 5825 5827 5829 5831 5833 5835 5837 5838 5839 5840 5841 5841 5842 5842 5842 5842 5842 5842 5842 5842 5841 5840 5839 5838 5836 5835 5834 5832 5830 5828 5826 5824 5822 5819 5817
5770 5775 5778 5782 5786 5790 5794 5798 5802 5807 5808 5809 5812 5816 5819 5821 5823 5825 5827 5830 5832 5833 5834 5835 5836 5837 5837 5837 5837 5838 5837 5837 5837 5836 5835 5834 5833 5832 5831 5829 5827 5826 5824 5822 5820 5818 5815 5813 5810
5759 5764 5769 5774 5778 5782 5785 5790 5795 5799 5800 5803 5806 5809 5813 5815 5817 5819 5821 5823 5826 5827 5829 5830 5831 5832 5832 5832 5832 5832 5832 5832 5831 5830 5829 5828 5827 5826 5824 5823 5821 5819 5817 5815 5813 5810 5808 5806 5803
5748 5753 5759 5766 5769 5773 5776 5782 5788 5790 5792 5796 5799 5802 5805 5808 5811 5813 5815 5817 5819 5821 5822 5824 5825 5826 5827 5827 5827 5826 5826 5825 5825 5824 5823 5822 5820 5819 5818 5816 5814 5812 5810 5808 5806 5803 5801 5798 5796
5736 5743 5751 5757 5760 5763 5766 5774 5779 5780 5784 5788 5791 5794 5797 5801 5804 5806 5808 5810 5812 5814 5815 5817 5818 5819 5820 5820 5820 5820 5820 5819 5818 5817 5816 5814 5813 5812 5810 5809 5807 5805 5803 5800 5798 5796 5793 5791 5788
5730 5736 5742 5747 5751 5753 5756 5763 5769 5771 5775 5779 5783 5786 5789 5793 5796 5798 5800 5802 5804 5806 5808 5809 5810 5812 5812 5812 5813 5812 5812 5811 5810 5809 5808 5807 5805 5804 5802 5801 5799 5797 5795 5793 5790 5788 5785 5783 5780
5720 5724 5730 5736 5740 5743 5746 5752 5758 5761 5765 5771 5775 5778 5782 5785 5788 5789 5792 5794 5796 5798 5800 5801 5802 5803 5803 5804 5804 5804 5803 5803 5802 5801 5800 5798 5797 5795 5794 5792 5790 5789 5787 5784 5782 5780 5777 5775 5772
5707 5712 5719 5725 5729 5732 5736 5741 5747 5752 5756 5761 5766 5770 5773 5776 5778 5781 5783 5785 5788 5790 5791 5792 5793 5794 5794 5795 5795 5795 5795 5794 5794 5792 5791 5789 5788 5787 5785 5783 5782 5780 5778 5776 5774 5771 5769 5766 5764
5696 5704 5711 5716 5719 5721 5725 5730 5737 5743 5747 5752 5756 5760 5764 5767 5770 5772 5774 5776 5779 5781 5782 5783 5784 5785 5785 5785 5785 5785 5785 5785 5785 5783 5781 5780 5779 5778 5776 5775 5773 5771 5769 5767 5765 5763 5761 5758 5755
5687 5697 5701 5704 5707 5710 5715 5718 5728 5733 5738 5743 5747 5751 5754 5758 5760 5763 5765 5767 5770 5771 5772 5774 5775 5775 5776 5776 5776 5776 5776 5776 5775 5774 5772 5771 5770 5769 5767 5766 5764 5762 5760 5758 5756 5754 5752 5749 5747
5681 5687 5690 5694 5696 5700 5703 5706 5717 5724 5729 5735 5738 5741 5745 5748 5750 5753 5755 5758 5759 5761 5762 5763 5764 5765 5766 5766 5767 5766 5766 5766 5765 5764 5763 5762 5761 5759 5758 5757 5755 5753 5752 5750 5748 5745 5743 5741 5738
5670 5674 5678 5681 5684 5687 5695 5697 5705 5716 5722 5726 5729 5732 5735 5738 5741 5743 5745 5747 5749 5751 5752 5753 5754 5755 5756 5756 5756 5756 5756 5755 5755 5754 5753 5752 5751 5750 5749 5747 5746 5744 5742 5741 5739 5737 5734 5732 5729
5655 5662 5666 5669 5671 5677 5687 5687 5696 5709 5713 5716 5720 5722 5725 5728 5730 5733 5735 5738 5739 5741 5743 5744 5745 5745 5746 5746 5747 5746 5746 5746 5745 5744 5743 5743 5742 5741 5739 5738 5737 5735 5733 5732 5730 5728 5725 5723 5720
5645 5651 5656 5661 5665 5672 5676 5679 5691 5699 5703 5706 5710 5712 5715 5718 5721 5723 5726 5727 5729 5731 5732 5734 5735 5736 5736 5737 5737 5737 5736 5736 5735 5735 5734 5733 5732 5731 5730 5729 5728 5726 5725 5723 5721 5719 5716 5713 5711
5635 5640 5649 5654 5657 5661 5665 5673 5682 5687 5693 5697 5701 5703 5706 5709 5711 5714 5716 5718 5720 5721 5723 5724 5725 5726 5726 5727 5727 5727 5727 5726 5726 5725 5725 5724 5723 5722 5721 5720 5719 5717 5716 5714 5712 5710 5707 5704 5701
5626 5633 5637 5641 5646 5650 5657 5664 5674 5680 5685 5689 5692 5695 5697 5700 5703 5705 5707 5708 5710 5712 5713 5714 5715 5716 5717 5717 5718 5718 5718 5717 5717 5716 5716 5715 5714 5713 5712 5711 5710 5709 5707 5705 5703 5700 5698 5695 5692
5614 5620 5626 5633 5637 5643 5648 5659 5667 5672 5676 5680 5683 5686 5689 5691 5694 5696 5698 5700 5701 5703 5704 5705 5706 5707 5708 5708 5708 5708 5708 5708 5708 5708 5707 5706 5706 5705 5704 5703 5701 5700 5698 5696 5694 5691 5689 5686 5682
5605 5611 5618 5624 5630 5635 5641 5652 5658 5663 5667 5671 5675 5678 5681 5683 5686 5688 5690 5692 5693 5694 5695 5696 5697 5698 5699 5699 5699 5700 5700 5700 5699 5699 5699 5698 5697 5696 5695 5694 5693 5691 5689 5687 5685 5682 5679 5676 5672